Regional Weather Roundup
Issued by NWS

Home | Current Version | Previous Version | Text Only | Print | Product List | Glossary On
Versions: 1 2 3 4 5 6 7 8 9 10 11 12 13 14 15 16 17 18 19 20 21 22 23 24 25 26 27 28 29 30 31 32 33 34 35 36 37 38 39 40 41 42 43 44 45 46 47 48 49 50
000
ASUS43 KMKX 270821
RWRWI

WISCONSIN REGIONAL WEATHER ROUNDUP
NATIONAL WEATHER SERVICE MILWAUKEE/SULLIVAN WI
300 AM CDT TUE SEP 27 2016

NOTE: "FAIR" INDICATES FEW OR NO CLOUDS BELOW 12,000 FEET WITH NO
SIGNIFICANT WEATHER AND/OR OBSTRUCTIONS TO VISIBILITY.

WIZ001-002-006>008-014>016-023>028-270900-
NORTHWEST WISCONSIN

CITY           SKY/WX    TMP DP  RH WIND       PRES   REMARKS
SUPERIOR ARPT  CLOUDY    53  44  73 NW12G17   29.70F
ASHLAND        CLOUDY    50  46  86 W13       29.65F
HAYWARD        CLOUDY    52  41  66 W9G17     29.70F
SIREN          CLOUDY    53  40  63 W14       29.76F
CUMBERLAND     CLOUDY    50  39  66 W15G24    29.76S
RICE LAKE      CLOUDY    52  41  65 W12       29.76F
CHETEK         NOT AVBL
LADYSMITH      CLOUDY    54  43  66 W14G21    29.73S
EAU CLAIRE     CLEAR     51  41  68 W13       29.76F
MENOMONIE      CLEAR     52  41  65 W13G20    29.79S
NEW RICHMOND   CLEAR     48  40  73 W13G18    29.81S
OSCEOLA        CLEAR     50  41  71 W9G18     29.84S
$$

WIZ003>005-009-010-017-018-270900-
NORTH CENTRAL WISCONSIN

CITY           SKY/WX    TMP DP  RH WIND       PRES   REMARKS
MANITOWISH WTR NOT AVBL
ARBOR VITAE    CLOUDY    52  48  87 W14G22    29.63F
WOODRUFF       CLOUDY    52  48  87 W14G22    29.63F
RHINELANDER    CLOUDY    50  45  83 W14G24    29.65F
EAGLE RIVER    CLOUDY    48  44  85 W14G21    29.61S
LAND O LAKES   CLOUDY    48  47  94 W12G21    29.61F FOG
PHILLIPS       CLOUDY    51  43  75 W7        29.67F
TOMAHAWK       CLOUDY    51  42  72 W8        29.67F
MEDFORD        CLOUDY    50  42  73 W10       29.70F
MERRILL        CLOUDY    53  43  70 W9        29.68F
$$

WIZ029-030-035-036-043>047-270900-
CENTRAL WISCONSIN

CITY           SKY/WX    TMP DP  RH WIND       PRES   REMARKS
WAUSAU         CLOUDY    51  41  68 W16       29.68F
MOSINEE        CLOUDY    50  41  71 W15G22    29.71F
MARSHFIELD     CLOUDY    51  40  65 W13       29.72F
STEVENS POINT  CLOUDY    49  38  67 SW9G16    29.72F
WAUPACA        CLOUDY    55  40  55 W12G18    29.73F
WAUTOMA        PTCLDY    48  39  71 SW6       29.76F
WISC RAPIDS    CLOUDY    50  40  68 W9G18     29.75F
CAMP DOUGLAS   CLEAR     52  39  62 W12       29.78F
$$

WIZ011>013-019>022-031-037>040-048>050-270900-
NORTHEAST WISCONSIN

CITY           SKY/WX    TMP DP  RH WIND       PRES   REMARKS
ANTIGO         CLOUDY    50  43  76 W12       29.67F
SHAWANO        CLOUDY    55  42  60 SW8       29.68F
OCONTO         NOT AVBL
STURGEON BAY   CLOUDY    56  43  61 W16G24    29.65F
GREEN BAY      CLOUDY    53  43  68 SW8       29.69F
MANITOWOC      PTCLDY    54  41  61 SW6       29.72F
APPLETON       CLOUDY    50  36  57 W10       29.71F
CLINTONVILLE   NOT AVBL
OSHKOSH        PTCLDY    53  37  54 VRB7      29.73F
$$

WIZ032>034-041-042-053>061-270900-
SOUTHWEST WISCONSIN

CITY           SKY/WX    TMP DP  RH WIND       PRES   REMARKS
LA CROSSE      CLEAR     57  38  48 W15G24    29.81F
SPARTA         CLEAR     49  40  71 SW3       29.81S
VIROQUA        CLEAR     49  37  64 SW7       29.83F
BOSCOBEL       CLEAR     53  37  54 SW6       29.86F
PRAIRIE DU CHI CLEAR     53  35  50 W8        29.87F
PLATTEVILLE    CLEAR     48  39  71 W8        29.88F
$$

WIZ056-057-062-063-064-067-068-270900-
SOUTH CENTRAL WISCONSIN

CITY           SKY/WX    TMP DP  RH WIND       PRES   REMARKS
REEDSBURG      NOT AVBL
BARABOO/DELLS  CLEAR     51  36  57 W10       29.80F
LONE ROCK      CLEAR     51  40  65 W8        29.84F
MINERAL POINT  CLEAR     50  36  57 W9        29.85F
MADISON        CLEAR     53  37  54 VRB6      29.81F
MIDDLETON      NOT AVBL
WATERTOWN      CLEAR     49  40  71 SW7       29.80F
MONROE         CLEAR     52  36  54 W14       29.85F
JANESVILLE     CLEAR     54  36  50 W9        29.84F
$$

WIZ051-052-058>065-066-070>072-270900-
SOUTHEAST WISCONSIN

CITY           SKY/WX    TMP DP  RH WIND       PRES   REMARKS
MILWAUKEE      CLEAR     55  38  52 SW12      29.80F
WAUKESHA       CLEAR     50  36  57 SW9       29.81F
MILWAUKEE/TIMM PTCLDY    50  36  57 SW7       29.80F
RACINE         CLEAR     52  38  58 SW9       29.83F
BURLINGTON     CLEAR     50  37  60 SW8       29.82F
KENOSHA        CLEAR     50  39  66 W12       29.83F
FOND DU LAC    CLEAR     51  38  60 SW12      29.76F
SHEBOYGAN      PTCLDY    50  40  68 SW10      29.74F
WEST BEND      CLEAR     50  37  62 SW9       29.78F
JUNEAU         CLEAR     47  38  71 SW8       29.79F
$$

LSZ147-162-270900-
LAKE SUPERIOR

STATION/POSITION TIME  TEMP    WIND        PRES    WAVE
                       AIR SEA DIR/SP/G            HT/PER
                 (UTC) (F)     (DEG/KT/KT) (MB)    (FT/S)
W MID LAKE BUOY  0750   51 46  270/ 17/ 19  999.5R   5/ 6
DEVILS ISLAND    0800   52     260/ 19/ 21 1002.2F
SAXON HARBOR     0740   52     240/  7/ 14 1003.4F
$$

LMZ867-665-643>646-270900-
LAKE MICHIGAN

STATION/POSITION TIME  TEMP    WIND        PRES    WAVE
                       AIR SEA DIR/SP/G            HT/PER
                 (UTC) (F)     (DEG/KT/KT) (MB)    (FT/S)
CHAMBERS ISLAND  0700   56     230/ 10/ 18 1003.4F
N MID LAKE BUOY  0750   58 66  250/ 25/ 31 1001.4F   6/ 6
NORTHPORT PIER   0700   56     250/  9/ 18 1003.4F
KEWAUNEE LAKESHO 0700   55     240/  7/ 11 1005.4F
SHEBOYGAN LAKESH 0800   54     240/ 13/ 17 1006.8F
PORT WASHINGTON  0740   53     250/  7/ 11 1009.1F
ATWATER BUOY     0800   56 58  230/ 12/ 14 1008.9F
MILWAUKEE LAKESH 0710   57     240/ 11/ 13   N/A
S MID LAKE BUOY  0750   63 70  250/ 23/ 29 1008.2F   5/ 5
KENOSHA   LAKESH 0800   56     250/ 10/ 17 1009.8F
$$

TC  - TEMPERATURE IN CELSIUS
VSB - VISIBILITY IN STATUTE MILES
WCI - WIND CHILL INDEX
HX  - HEAT INDEX





USA.gov is the U.S. government's official web portal to all federal, state and local government web resources and services.